TimeEDT,TemperatureF,Dew PointF,Humidity,Sea Level PressureIn,VisibilityMPH,Wind Direction,Wind SpeedMPH,Gust SpeedMPH,PrecipitationIn,Events,Conditions,WindDirDegrees,DateUTC
12:00 AM,78.8,68.0,69,30.06,6.2,SE,9.2,-,N/A,,Partly Cloudy,130,2014-04-30 04:00:00
12:54 AM,78.8,69.8,74,30.03,6.2,SE,9.2,-,N/A,,Partly Cloudy,140,2014-04-30 04:54:00
2:00 AM,80,73,74,30.04,9,SE,6.9,,,,Scattered Clouds,140,2014-04-30 06:00:00
2:00 AM,80.6,73.4,79,30.03,6.2,SE,6.9,-,N/A,,Partly Cloudy,140,2014-04-30 06:00:00
3:00 AM,78.8,71.6,78,30.01,6.2,SE,5.8,-,N/A,,Scattered Clouds,140,2014-04-30 07:00:00
4:00 AM,78.8,71.6,78,30.01,6.2,SE,5.8,-,N/A,,Partly Cloudy,140,2014-04-30 08:00:00
5:00 AM,79,74,81,30.01,8,ESE,4.6,,,,Scattered Clouds,120,2014-04-30 09:00:00
5:00 AM,78.8,73.4,83,30.01,6.2,ESE,4.6,-,N/A,,Partly Cloudy,120,2014-04-30 09:00:00
7:00 AM,78.8,71.6,78,30.04,6.2,ESE,4.6,-,N/A,,Scattered Clouds,120,2014-04-30 11:00:00
8:00 AM,82,75,73,30.07,8,SE,11.5,,,,Partly Cloudy,140,2014-04-30 12:00:00
8:00 AM,82.4,75.2,79,30.07,6.2,SE,11.5,-,N/A,,Scattered Clouds,140,2014-04-30 12:00:00
9:00 AM,80.6,71.6,74,30.07,6.2,SE,11.5,-,N/A,,Scattered Clouds,140,2014-04-30 13:00:00
10:00 AM,84.2,71.6,66,30.09,6.2,SE,13.8,-,N/A,,Scattered Clouds,140,2014-04-30 14:00:00
11:00 AM,85,74,64,30.09,8,SE,4.6,,,,Partly Cloudy,140,2014-04-30 15:00:00
11:00 AM,84.2,75.2,74,30.09,6.2,SE,16.1,-,N/A,,Scattered Clouds,140,2014-04-30 15:00:00
12:00 PM,84.2,73.4,70,30.09,6.2,SE,13.8,-,N/A,,Scattered Clouds,140,2014-04-30 16:00:00
1:00 PM,86.0,71.6,62,30.09,6.2,SE,13.8,25.3,N/A,,Scattered Clouds,140,2014-04-30 17:00:00
2:00 PM,87,75,60,30.09,8,SE,11.5,,,,Partly Cloudy,140,2014-04-30 18:00:00
2:00 PM,87.8,75.2,66,30.09,6.2,SE,11.5,27.6,N/A,,Scattered Clouds,140,2014-04-30 18:00:00
3:00 PM,86.0,71.6,62,30.08,6.2,ESE,11.5,-,N/A,,Scattered Clouds,110,2014-04-30 19:00:00
4:00 PM,86.0,71.6,62,30.06,6.2,SSE,11.5,-,N/A,,Scattered Clouds,150,2014-04-30 20:00:00
5:00 PM,86,73,58,30.06,9,SE,11.5,,,,Partly Cloudy,130,2014-04-30 21:00:00
5:00 PM,86.0,73.4,66,30.05,6.2,SE,11.5,-,N/A,,Scattered Clouds,130,2014-04-30 21:00:00
8:00 PM,82,73,68,30.07,9,ESE,8.1,,,,Scattered Clouds,120,2014-05-01 00:00:00
8:00 PM,82.4,73.4,74,30.06,6.2,ESE,8.1,-,N/A,,Scattered Clouds,120,2014-05-01 00:00:00
11:00 PM,81,74,74,30.09,9,East,6.9,,,,Scattered Clouds,90,2014-05-01 03:00:00
11:00 PM,80.6,73.4,79,30.09,6.2,East,6.9,-,N/A,,Partly Cloudy,90,2014-05-01 03:00:00